User: anonymous   Login
Location: Abundant Grace Fellowship
(35.0349°N, 90.0924°W)
Time: 06:11:02
(UTC+00:00)
Language:

SJ 16-02 - Orbit

View from above orbital plane
View from above orbital plane
View from above satellite
View from above satellite

Ground track
Ground track

The orbit is defined by the following mean orbital elements,

1 41634U          26075.83050008 +.00000000 +00000-0 +95290-4 0 00004
2 41634  75.0012  93.7683 0008657 260.3701  99.6510 14.93247172    06
Epoch (UTC): 16 March 2026 19:55:55
Eccentricity: 0.0008657
inclination: 75.0012°
perigee height: 582 km
apogee height: 594 km
right ascension of ascending node: 93.7683°
argument of perigee: 260.3701°
revolutions per day: 14.93247172
mean anomaly at epoch: 99.6510°

The dashed part of the orbit path shows where the satellite is in the earth's shadow,  

DLR